| time (UTC) | temp F | wind direction | speed knots | gust knots | rain 1hr in | rain 24hr in | rain mn in | humidity % | barometer mb |
| 20260507012403 | 59 | 124 | 0.9 | 2.6 | 0.00 | 0.00 | 0.00 | 73 | 1019.7 |
| 20260507011403 | 59 | 142 | 0.9 | 2.6 | 0.00 | 0.00 | 0.00 | 73 | 1019.7 |
| 20260507010903 | 59 | 198 | 0.9 | 2.6 | 0.00 | 0.00 | 0.00 | 73 | 1019.8 |
| 20260507010403 | 59 | 224 | 0.9 | 2.6 | 0.00 | 0.00 | 0.00 | 73 | 1019.9 |
| 20260507005903 | 60 | 183 | 0.0 | 1.7 | 0.00 | 0.00 | 0.00 | 72 | 1019.8 |
| 20260507004903 | 60 | 205 | 0.9 | 2.6 | 0.00 | 0.00 | 0.00 | 72 | 1019.9 |
| 20260507004404 | 60 | 205 | 0.0 | 1.7 | 0.00 | 0.00 | 0.00 | 73 | 1019.8 |
| 20260507003903 | 60 | 150 | 0.9 | 2.6 | 0.00 | 0.00 | 0.00 | 73 | 1019.9 |
| 20260507002403 | 59 | 185 | 0.0 | 1.7 | 0.00 | 0.00 | 0.00 | 73 | 1019.8 |
| 20260507001903 | 59 | 201 | 1.7 | 4.3 | 0.00 | 0.00 | 0.00 | 73 | 1019.8 |
| 20260507001403 | 59 | 185 | 0.9 | 2.6 | 0.00 | 0.00 | 0.00 | 73 | 1019.9 |
| 20260507000902 | 59 | 189 | 0.9 | 2.6 | 0.00 | 0.00 | 0.00 | 73 | 1019.8 |
| 20260507000405 | 59 | 206 | 0.9 | 2.6 | 0.00 | 0.00 | 0.00 | 73 | 1019.9 |
| 20260506235903 | 59 | 149 | 0.0 | 1.7 | 0.00 | 0.00 | 0.00 | 74 | 1019.9 |
| 20260506235403 | 59 | 208 | 1.7 | 4.3 | 0.00 | 0.00 | 0.00 | 73 | 1019.9 |
| 20260506234403 | 59 | 172 | 0.0 | 2.6 | 0.00 | 0.00 | 0.00 | 73 | 1019.9 |
| 20260506233902 | 59 | 153 | 1.7 | 2.6 | 0.00 | 0.00 | 0.00 | 73 | 1019.9 |
| 20260506233403 | 60 | 215 | 0.9 | 4.3 | 0.00 | 0.00 | 0.00 | 73 | 1019.9 |
| 20260506232903 | 60 | 199 | 0.9 | 2.6 | 0.00 | 0.00 | 0.00 | 73 | 1019.8 |
| 20260506232403 | 60 | 215 | 0.0 | 6.1 | 0.00 | 0.00 | 0.00 | 73 | 1019.8 |
| 20260506231903 | 60 | 195 | 2.6 | 6.1 | 0.00 | 0.00 | 0.00 | 72 | 1019.8 |
| 20260506231403 | 61 | 172 | 1.7 | 4.3 | 0.00 | 0.00 | 0.00 | 72 | 1019.9 |
| 20260506230903 | 61 | 162 | 0.9 | 4.3 | 0.00 | 0.00 | 0.00 | 73 | 1019.9 |
| 20260506230403 | 61 | 187 | 1.7 | 2.6 | 0.00 | 0.00 | 0.00 | 73 | 1019.8 |
| 20260506225903 | 61 | 154 | 0.9 | 5.2 | 0.00 | 0.00 | 0.00 | 73 | 1019.8 |
| 20260506225403 | 60 | 190 | 0.9 | 2.6 | 0.00 | 0.00 | 0.00 | 73 | 1019.9 |
| 20260506223902 | 60 | 189 | 2.6 | 6.1 | 0.00 | 0.00 | 0.00 | 73 | 1019.9 |
| 20260506223403 | 61 | 219 | 2.6 | 5.2 | 0.00 | 0.00 | 0.00 | 73 | 1019.9 |
| 20260506222403 | 61 | 209 | 0.9 | 2.6 | 0.00 | 0.00 | 0.00 | 74 | 1020.0 |
| 20260506221903 | 61 | 203 | 0.9 | 2.6 | 0.00 | 0.00 | 0.00 | 73 | 1020.0 |
| 20260506221404 | 61 | 208 | 0.0 | 1.7 | 0.00 | 0.00 | 0.00 | 73 | 1020.1 |
| 20260506220904 | 61 | 178 | 0.9 | 4.3 | 0.00 | 0.00 | 0.00 | 73 | 1020.2 |
| 20260506215903 | 61 | 210 | 1.7 | 4.3 | 0.00 | 0.00 | 0.00 | 73 | 1020.2 |
| 20260506215403 | 61 | 173 | 0.9 | 2.6 | 0.00 | 0.00 | 0.00 | 73 | 1020.1 |
| 20260506214904 | 61 | 218 | 0.9 | 5.2 | 0.00 | 0.00 | 0.00 | 73 | 1019.9 |
| 20260506214403 | 61 | 210 | 0.9 | 4.3 | 0.00 | 0.00 | 0.00 | 73 | 1020.1 |
| 20260506212904 | 61 | 193 | 0.9 | 6.1 | 0.00 | 0.00 | 0.00 | 73 | 1020.1 |
| 20260506212403 | 62 | 184 | 1.7 | 5.2 | 0.00 | 0.00 | 0.00 | 73 | 1020.0 |
| 20260506211404 | 61 | 154 | 1.7 | 4.3 | 0.00 | 0.00 | 0.00 | 73 | 1020.1 |
| 20260506210403 | 61 | 202 | 0.9 | 2.6 | 0.00 | 0.00 | 0.00 | 73 | 1020.0 |
| 20260506205903 | 60 | 267 | 0.9 | 4.3 | 0.00 | 0.00 | 0.00 | 74 | 1020.0 |
| 20260506205403 | 60 | 158 | 1.7 | 4.3 | 0.00 | 0.00 | 0.00 | 74 | 1020.0 |
| 20260506204903 | 60 | 181 | 0.9 | 4.3 | 0.00 | 0.00 | 0.00 | 74 | 1020.0 |
| 20260506204403 | 60 | 224 | 0.9 | 2.6 | 0.00 | 0.00 | 0.00 | 74 | 1020.0 |
| 20260506203903 | 60 | 201 | 1.7 | 5.2 | 0.00 | 0.00 | 0.00 | 74 | 1020.0 |
| 20260506203403 | 60 | 125 | 0.0 | 2.6 | 0.00 | 0.00 | 0.00 | 72 | 1019.9 |
| 20260506202903 | 60 | 130 | 0.9 | 2.6 | 0.00 | 0.00 | 0.00 | 73 | 1020.0 |
| 20260506202404 | 59 | 221 | 0.0 | 0.0 | 0.00 | 0.00 | 0.00 | 71 | 1020.1 |
| 20260506201903 | 59 | 140 | 0.0 | 1.7 | 0.00 | 0.00 | 0.00 | 70 | 1020.1 |
| 20260506201403 | 59 | 135 | 0.0 | 2.6 | 0.00 | 0.00 | 0.00 | 70 | 1020.2 |
| 20260506200903 | 59 | 128 | 0.9 | 1.7 | 0.00 | 0.00 | 0.00 | 70 | 1020.2 |
| 20260506200403 | 58 | 236 | 0.9 | 1.7 | 0.00 | 0.00 | 0.00 | 70 | 1020.1 |
| 20260506195403 | 58 | 276 | 0.9 | 2.6 | 0.00 | 0.00 | 0.00 | 68 | 1020.1 |
| 20260506194903 | 58 | 180 | 0.0 | 1.7 | 0.00 | 0.00 | 0.00 | 67 | 1020.0 |
| 20260506194404 | 58 | 150 | 0.0 | 2.6 | 0.00 | 0.00 | 0.00 | 63 | 1019.9 |
| 20260506193903 | 58 | 204 | 0.0 | 4.3 | 0.00 | 0.00 | 0.00 | 63 | 1019.9 |
| 20260506193403 | 58 | 141 | 0.9 | 2.6 | 0.00 | 0.00 | 0.00 | 62 | 1020.0 |
| 20260506192404 | 58 | 189 | 0.0 | 1.7 | 0.00 | 0.00 | 0.00 | 64 | 1020.0 |
| 20260506191403 | 58 | 218 | 0.9 | 1.7 | 0.00 | 0.00 | 0.00 | 64 | 1019.9 |
| 20260506190903 | 58 | 144 | 0.9 | 2.6 | 0.00 | 0.00 | 0.00 | 63 | 1019.8 |
| 20260506190403 | 58 | 151 | 0.9 | 2.6 | 0.00 | 0.00 | 0.00 | 65 | 1019.8 |
| 20260506185904 | 58 | 163 | 1.7 | 2.6 | 0.00 | 0.00 | 0.00 | 66 | 1019.8 |
| 20260506185403 | 58 | 172 | 0.9 | 0.9 | 0.00 | 0.00 | 0.00 | 62 | 1019.9 |
| 20260506184903 | 58 | 145 | 0.9 | 2.6 | 0.00 | 0.00 | 0.00 | 58 | 1019.9 |
| 20260506184403 | 58 | 189 | 0.9 | 1.7 | 0.00 | 0.00 | 0.00 | 56 | 1019.9 |
| 20260506183903 | 57 | 153 | 0.0 | 0.9 | 0.00 | 0.00 | 0.00 | 48 | 1019.8 |
| 20260506183403 | 57 | 137 | 0.0 | 0.9 | 0.00 | 0.00 | 0.00 | 44 | 1019.7 |
| 20260506182903 | 57 | 142 | 0.0 | 0.9 | 0.00 | 0.00 | 0.00 | 46 | 1019.7 |
| 20260506182404 | 57 | 194 | 1.7 | 2.6 | 0.00 | 0.00 | 0.00 | 51 | 1019.6 |
| 20260506181903 | 57 | 222 | 0.0 | 1.7 | 0.00 | 0.00 | 0.00 | 47 | 1019.7 |
| 20260506181403 | 57 | 211 | 0.9 | 2.6 | 0.00 | 0.00 | 0.00 | 50 | 1019.7 |
| 20260506180903 | 57 | 221 | 0.0 | 0.9 | 0.00 | 0.00 | 0.00 | 48 | 1019.7 |
| 20260506180403 | 57 | 240 | 0.0 | 0.9 | 0.00 | 0.00 | 0.00 | 53 | 1019.6 |
| 20260506175904 | 57 | 237 | 0.0 | 0.9 | 0.00 | 0.00 | 0.00 | 51 | 1019.7 |
| 20260506174903 | 57 | 226 | 0.0 | 1.7 | 0.00 | 0.00 | 0.00 | 51 | 1019.4 |
| 20260506174403 | 57 | 159 | 0.0 | 1.7 | 0.00 | 0.00 | 0.00 | 48 | 1019.3 |
| 20260506173403 | 57 | 133 | 0.0 | 0.0 | 0.00 | 0.00 | 0.00 | 43 | 1019.3 |
| 20260506172904 | 57 | 141 | 0.0 | 0.0 | 0.00 | 0.00 | 0.00 | 40 | 1019.4 |
| 20260506172404 | 57 | 124 | 0.0 | 0.0 | 0.00 | 0.00 | 0.00 | 33 | 1019.5 |
| 20260506171903 | 57 | 124 | 0.0 | 0.0 | 0.00 | 0.00 | 0.00 | 33 | 1019.6 |
| 20260506170903 | 56 | 124 | 0.0 | 0.0 | 0.00 | 0.00 | 0.00 | 29 | 1019.8 |
| 20260506170403 | 56 | 124 | 0.0 | 0.0 | 0.00 | 0.00 | 0.00 | 34 | 1019.6 |
| 20260506165903 | 56 | 124 | 0.0 | 0.0 | 0.00 | 0.00 | 0.00 | 29 | 1019.6 |
| 20260506165403 | 56 | 124 | 0.0 | 0.0 | 0.00 | 0.00 | 0.00 | 20 | 1019.6 |
| 20260506164903 | 56 | 124 | 0.0 | 0.0 | 0.00 | 0.00 | 0.00 | 18 | 1019.6 |
| 20260506164404 | 56 | 124 | 0.0 | 0.0 | 0.00 | 0.00 | 0.00 | 17 | 1019.7 |
| 20260506163905 | 56 | 124 | 0.0 | 0.0 | 0.00 | 0.00 | 0.00 | 16 | 1019.6 |
| 20260506163403 | 56 | 124 | 0.0 | 0.0 | 0.00 | 0.00 | 0.00 | 16 | 1019.6 |
| 20260506162903 | 56 | 124 | 0.0 | 0.0 | 0.00 | 0.00 | 0.00 | 11 | 1019.6 |
| 20260506162403 | 56 | 124 | 0.0 | 0.0 | 0.00 | 0.00 | 0.00 | 10 | 1019.5 |
| 20260506161904 | 56 | 124 | 0.0 | 0.0 | 0.00 | 0.00 | 0.00 | 9 | 1019.4 |
| 20260506161403 | 55 | 124 | 0.0 | 0.9 | 0.00 | 0.00 | 0.00 | 9 | 1019.3 |
| 20260506160903 | 55 | 217 | 0.0 | 0.0 | 0.00 | 0.00 | 0.00 | 3 | 1019.4 |
| 20260506160404 | 55 | 217 | 0.0 | 0.0 | 0.00 | 0.00 | 0.00 | 3 | 1019.4 |
| 20260506155903 | 55 | 217 | 0.0 | 0.9 | 0.00 | 0.00 | 0.00 | 3 | 1019.3 |
| 20260506154903 | 55 | 205 | 0.0 | 2.6 | 0.00 | 0.00 | 0.00 | 3 | 1019.0 |
| 20260506154403 | 55 | 193 | 0.9 | 2.6 | 0.00 | 0.00 | 0.00 | 3 | 1019.0 |
| 20260506153904 | 55 | 150 | 0.9 | 1.7 | 0.00 | 0.00 | 0.00 | 3 | 1019.1 |
| 20260506153403 | 54 | 124 | 0.0 | 0.0 | 0.00 | 0.00 | 0.00 | 3 | 1019.1 |
| 20260506152903 | 54 | 200 | 0.0 | 0.0 | 0.00 | 0.00 | 0.00 | 3 | 1019.2 |
| 20260506152403 | 54 | 200 | 0.0 | 0.0 | 0.00 | 0.00 | 0.00 | 3 | 1019.2 |
| 20260506151903 | 54 | 224 | 0.0 | 0.0 | 0.00 | 0.00 | 0.00 | 3 | 1019.3 |
| 20260506151404 | 54 | 224 | 0.0 | 0.0 | 0.00 | 0.00 | 0.00 | 3 | 1019.4 |
| 20260506145904 | 54 | 223 | 0.0 | 0.9 | 0.00 | 0.00 | 0.00 | 3 | 1019.3 |
| 20260506145403 | 54 | 107 | 0.0 | 0.9 | 0.00 | 0.00 | 0.00 | 3 | 1019.1 |
| 20260506144904 | 54 | 107 | 0.0 | 0.0 | 0.00 | 0.00 | 0.00 | 3 | 1019.1 |
| 20260506143904 | 53 | 191 | 0.0 | 0.9 | 0.00 | 0.00 | 0.00 | 3 | 1019.1 |
| 20260506142903 | 53 | 198 | 0.0 | 0.0 | 0.00 | 0.00 | 0.00 | 3 | 1019.1 |
| 20260506142404 | 53 | 198 | 0.0 | 0.0 | 0.00 | 0.00 | 0.00 | 3 | 1019.1 |
| 20260506141903 | 53 | 198 | 0.0 | 0.0 | 0.00 | 0.00 | 0.00 | 3 | 1019.0 |
| 20260506141404 | 53 | 198 | 0.0 | 0.0 | 0.00 | 0.00 | 0.00 | 3 | 1018.9 |
| 20260506140903 | 53 | 198 | 0.0 | 0.0 | 0.00 | 0.00 | 0.00 | 3 | 1018.9 |
| 20260506135903 | 52 | 198 | 0.0 | 0.0 | 0.00 | 0.00 | 0.00 | 3 | 1018.8 |
| 20260506135404 | 52 | 198 | 0.0 | 0.0 | 0.00 | 0.00 | 0.00 | 3 | 1018.9 |
| 20260506134904 | 52 | 198 | 0.0 | 0.0 | 0.00 | 0.00 | 0.00 | 3 | 1019.0 |
| 20260506134403 | 52 | 198 | 0.0 | 0.0 | 0.00 | 0.00 | 0.00 | 3 | 1018.9 |
| 20260506133904 | 52 | 198 | 0.0 | 0.0 | 0.00 | 0.00 | 0.00 | 3 | 1018.9 |
| 20260506133403 | 52 | 198 | 0.0 | 0.0 | 0.00 | 0.00 | 0.00 | 3 | 1019.0 |
| 20260506132904 | 52 | 198 | 0.0 | 0.0 | 0.00 | 0.00 | 0.00 | 3 | 1018.7 |
| 20260506132404 | 52 | 198 | 0.0 | 0.0 | 0.00 | 0.00 | 0.00 | 3 | 1018.8 |
| 20260506131904 | 52 | 198 | 0.0 | 0.0 | 0.00 | 0.00 | 0.00 | 3 | 1018.8 |
| 20260506131404 | 52 | 198 | 0.0 | 0.0 | 0.00 | 0.00 | 0.00 | 3 | 1018.7 |
| 20260506130903 | 52 | 198 | 0.0 | 0.0 | 0.00 | 0.00 | 0.00 | 3 | 1018.6 |
| 20260506125903 | 52 | 198 | 0.0 | 0.0 | 0.00 | 0.00 | 0.00 | 3 | 1018.4 |
| 20260506125404 | 52 | 198 | 0.0 | 0.0 | 0.00 | 0.00 | 0.00 | 3 | 1018.5 |
| 20260506124903 | 51 | 198 | 0.0 | 0.0 | 0.00 | 0.00 | 0.00 | 3 | 1018.3 |
| 20260506124403 | 51 | 198 | 0.0 | 0.0 | 0.00 | 0.00 | 0.00 | 3 | 1018.3 |
| 20260506123904 | 51 | 198 | 0.0 | 0.0 | 0.00 | 0.00 | 0.00 | 3 | 1018.3 |
| 20260506123403 | 51 | 198 | 0.0 | 0.0 | 0.00 | 0.00 | 0.00 | 3 | 1018.4 |
| 20260506122904 | 51 | 198 | 0.0 | 0.0 | 0.00 | 0.00 | 0.00 | 3 | 1018.3 |
| 20260506122403 | 51 | 198 | 0.0 | 0.0 | 0.00 | 0.00 | 0.00 | 3 | 1018.3 |
| 20260506121903 | 51 | 198 | 0.0 | 0.0 | 0.00 | 0.00 | 0.00 | 3 | 1018.4 |
| 20260506120903 | 51 | 198 | 0.0 | 0.0 | 0.00 | 0.00 | 0.00 | 3 | 1018.3 |
| 20260506120403 | 51 | 198 | 0.0 | 0.0 | 0.00 | 0.00 | 0.00 | 3 | 1018.3 |
| 20260506115904 | 51 | 198 | 0.0 | 0.0 | 0.00 | 0.00 | 0.00 | 3 | 1018.3 |
| 20260506115403 | 51 | 198 | 0.0 | 0.0 | 0.00 | 0.00 | 0.00 | 3 | 1018.3 |
| 20260506114904 | 51 | 198 | 0.0 | 0.0 | 0.00 | 0.00 | 0.00 | 3 | 1018.3 |
| 20260506114404 | 51 | 198 | 0.0 | 0.0 | 0.00 | 0.00 | 0.00 | 3 | 1018.2 |
| 20260506113904 | 51 | 198 | 0.0 | 0.0 | 0.00 | 0.00 | 0.00 | 3 | 1018.2 |
| 20260506113404 | 51 | 198 | 0.0 | 0.0 | 0.00 | 0.00 | 0.00 | 3 | 1018.2 |
| 20260506112903 | 51 | 198 | 0.0 | 0.0 | 0.00 | 0.00 | 0.00 | 3 | 1018.1 |
| 20260506112404 | 50 | 198 | 0.0 | 0.0 | 0.00 | 0.00 | 0.00 | 3 | 1018.0 |
| 20260506111903 | 50 | 198 | 0.0 | 0.0 | 0.00 | 0.00 | 0.00 | 3 | 1017.9 |
| 20260506111403 | 50 | 198 | 0.0 | 0.0 | 0.00 | 0.00 | 0.00 | 3 | 1017.8 |
| 20260506110402 | 50 | 198 | 0.0 | 0.0 | 0.00 | 0.00 | 0.00 | 3 | 1017.7 |
| 20260506105903 | 50 | 198 | 0.0 | 0.0 | 0.00 | 0.00 | 0.00 | 3 | 1017.7 |
| 20260506105402 | 50 | 198 | 0.0 | 0.0 | 0.00 | 0.00 | 0.00 | 3 | 1017.6 |
| 20260506104904 | 50 | 198 | 0.0 | 0.0 | 0.00 | 0.00 | 0.00 | 3 | 1017.5 |
| 20260506104402 | 50 | 198 | 0.0 | 0.0 | 0.00 | 0.00 | 0.00 | 3 | 1017.5 |
| 20260506103403 | 49 | 198 | 0.0 | 0.0 | 0.00 | 0.00 | 0.00 | 3 | 1017.4 |
| 20260506102403 | 49 | 198 | 0.0 | 0.0 | 0.00 | 0.00 | 0.00 | 3 | 1017.5 |
| 20260506101902 | 49 | 198 | 0.0 | 0.0 | 0.00 | 0.00 | 0.00 | 3 | 1017.4 |
| 20260506101402 | 49 | 198 | 0.0 | 0.0 | 0.00 | 0.00 | 0.00 | 3 | 1017.3 |
| 20260506100903 | 49 | 198 | 0.0 | 0.0 | 0.00 | 0.00 | 0.00 | 3 | 1017.2 |
| 20260506100402 | 49 | 198 | 0.0 | 0.0 | 0.00 | 0.00 | 0.00 | 3 | 1017.3 |
| 20260506095903 | 49 | 198 | 0.0 | 0.0 | 0.00 | 0.00 | 0.00 | 3 | 1017.3 |
| 20260506095402 | 48 | 198 | 0.0 | 0.0 | 0.00 | 0.00 | 0.00 | 3 | 1017.2 |
| 20260506094403 | 48 | 198 | 0.0 | 0.0 | 0.00 | 0.00 | 0.00 | 3 | 1017.2 |
| 20260506093902 | 48 | 198 | 0.0 | 0.0 | 0.00 | 0.00 | 0.00 | 3 | 1017.1 |
| 20260506093402 | 48 | 198 | 0.0 | 0.0 | 0.00 | 0.00 | 0.00 | 3 | 1017.1 |
| 20260506092903 | 48 | 198 | 0.0 | 0.0 | 0.00 | 0.00 | 0.00 | 3 | 1017.1 |
| 20260506092402 | 48 | 198 | 0.0 | 0.0 | 0.00 | 0.00 | 0.00 | 3 | 1017.2 |
| 20260506091903 | 48 | 198 | 0.0 | 0.0 | 0.00 | 0.00 | 0.00 | 3 | 1017.1 |
| 20260506091403 | 48 | 198 | 0.0 | 0.0 | 0.00 | 0.00 | 0.00 | 3 | 1017.1 |
| 20260506090902 | 48 | 198 | 0.0 | 0.0 | 0.00 | 0.00 | 0.00 | 3 | 1017.0 |
| 20260506090403 | 48 | 198 | 0.0 | 0.0 | 0.00 | 0.00 | 0.00 | 3 | 1017.0 |
| 20260506085902 | 48 | 198 | 0.0 | 0.0 | 0.00 | 0.00 | 0.00 | 3 | 1017.0 |
| 20260506085403 | 48 | 198 | 0.0 | 0.0 | 0.00 | 0.00 | 0.00 | 3 | 1016.9 |
| 20260506084902 | 49 | 198 | 0.0 | 0.0 | 0.00 | 0.00 | 0.00 | 3 | 1016.8 |
| 20260506084403 | 49 | 198 | 0.0 | 0.0 | 0.00 | 0.00 | 0.00 | 3 | 1016.7 |
| 20260506083902 | 49 | 198 | 0.0 | 0.0 | 0.00 | 0.00 | 0.00 | 3 | 1016.6 |
| 20260506081403 | 49 | 198 | 0.0 | 0.0 | 0.00 | 0.00 | 0.00 | 3 | 1016.5 |
| 20260506073403 | 50 | 198 | 0.0 | 0.0 | 0.00 | 0.00 | 0.00 | 3 | 1016.2 |
| 20260506072903 | 50 | 198 | 0.0 | 0.0 | 0.00 | 0.00 | 0.00 | 3 | 1016.3 |
| 20260506071903 | 50 | 198 | 0.0 | 0.0 | 0.00 | 0.00 | 0.00 | 3 | 1016.2 |
| 20260506071402 | 51 | 198 | 0.0 | 0.0 | 0.00 | 0.00 | 0.00 | 3 | 1016.2 |
| 20260506070403 | 51 | 198 | 0.0 | 0.0 | 0.00 | 0.00 | 0.00 | 3 | 1016.1 |
| 20260506062403 | 52 | 198 | 0.0 | 0.0 | 0.00 | 0.00 | 0.00 | 3 | 1016.0 |
| 20260506061903 | 52 | 198 | 0.0 | 0.0 | 0.00 | 0.00 | 0.00 | 3 | 1015.9 |
| 20260506061403 | 52 | 198 | 0.0 | 0.0 | 0.00 | 0.00 | 0.00 | 3 | 1015.9 |
| 20260506060902 | 52 | 198 | 0.0 | 0.0 | 0.00 | 0.00 | 0.00 | 3 | 1015.8 |
| 20260506051403 | 54 | 198 | 0.0 | 0.0 | 0.00 | 0.00 | 0.00 | 6 | 1015.3 |
| 20260506050903 | 54 | 198 | 0.0 | 0.0 | 0.00 | 0.00 | 0.00 | 10 | 1015.2 |
| 20260506050403 | 54 | 198 | 0.0 | 0.0 | 0.00 | 0.00 | 0.00 | 12 | 1015.1 |
| 20260506044902 | 55 | 198 | 0.0 | 0.0 | 0.00 | 0.00 | 0.00 | 25 | 1015.1 |
| 20260506044403 | 55 | 198 | 0.0 | 0.0 | 0.00 | 0.00 | 0.00 | 24 | 1015.1 |
| 20260506043403 | 55 | 198 | 0.0 | 0.0 | 0.00 | 0.00 | 0.00 | 31 | 1015.0 |
| 20260506042402 | 56 | 198 | 0.0 | 0.0 | 0.00 | 0.00 | 0.00 | 36 | 1014.9 |
| 20260506041403 | 56 | 198 | 0.0 | 0.0 | 0.00 | 0.00 | 0.00 | 49 | 1014.7 |
| 20260506040902 | 56 | 198 | 0.0 | 0.0 | 0.00 | 0.00 | 0.00 | 50 | 1014.7 |
| 20260506040403 | 57 | 198 | 0.0 | 0.0 | 0.00 | 0.00 | 0.00 | 53 | 1014.7 |
| 20260506035903 | 57 | 198 | 0.0 | 0.0 | 0.00 | 0.00 | 0.00 | 58 | 1014.7 |
| 20260506035403 | 57 | 198 | 0.0 | 0.0 | 0.00 | 0.00 | 0.00 | 59 | 1014.7 |
| 20260506034903 | 58 | 198 | 0.0 | 0.0 | 0.00 | 0.00 | 0.00 | 60 | 1014.7 |
| 20260506034403 | 58 | 198 | 0.0 | 0.0 | 0.00 | 0.00 | 0.00 | 63 | 1014.6 |
| 20260506033903 | 58 | 198 | 0.0 | 0.0 | 0.00 | 0.00 | 0.00 | 63 | 1014.6 |
| 20260506032902 | 59 | 198 | 0.0 | 0.0 | 0.00 | 0.00 | 0.00 | 65 | 1014.5 |
| 20260506032403 | 59 | 198 | 0.0 | 0.0 | 0.00 | 0.00 | 0.00 | 67 | 1014.5 |
| 20260506031903 | 60 | 198 | 0.0 | 0.0 | 0.00 | 0.00 | 0.00 | 68 | 1014.5 |
| 20260506031402 | 60 | 198 | 0.0 | 0.0 | 0.00 | 0.00 | 0.00 | 69 | 1014.4 |
| 20260506030903 | 60 | 198 | 0.0 | 0.0 | 0.00 | 0.00 | 0.00 | 70 | 1014.3 |
| 20260506030404 | 61 | 198 | 0.0 | 0.0 | 0.00 | 0.00 | 0.00 | 72 | 1014.3 |
| 20260506025902 | 61 | 198 | 0.0 | 0.0 | 0.00 | 0.00 | 0.00 | 73 | 1014.2 |
| 20260506025403 | 61 | 198 | 0.0 | 0.0 | 0.00 | 0.00 | 0.00 | 73 | 1014.2 |
| 20260506024904 | 62 | 198 | 0.0 | 0.0 | 0.00 | 0.00 | 0.00 | 73 | 1014.3 |
| 20260506024404 | 62 | 198 | 0.0 | 0.0 | 0.00 | 0.00 | 0.00 | 73 | 1014.3 |
| 20260506023903 | 62 | 198 | 0.0 | 0.0 | 0.00 | 0.00 | 0.00 | 73 | 1014.2 |
| 20260506023403 | 63 | 198 | 0.0 | 0.0 | 0.00 | 0.00 | 0.00 | 73 | 1014.2 |
| 20260506022404 | 63 | 198 | 0.0 | 0.0 | 0.00 | 0.00 | 0.00 | 72 | 1014.2 |
| 20260506021403 | 64 | 198 | 0.0 | 0.0 | 0.00 | 0.00 | 0.00 | 72 | 1014.2 |
| 20260506020904 | 64 | 198 | 0.0 | 0.0 | 0.00 | 0.00 | 0.00 | 72 | 1014.2 |
| 20260506020403 | 64 | 198 | 0.0 | 0.0 | 0.00 | 0.00 | 0.00 | 71 | 1014.2 |
| 20260506015403 | 65 | 198 | 0.0 | 0.0 | 0.00 | 0.00 | 0.00 | 70 | 1014.1 |
| 20260506014903 | 65 | 198 | 0.0 | 0.0 | 0.00 | 0.00 | 0.00 | 70 | 1014.2 |
| 20260506014402 | 65 | 193 | 0.0 | 0.0 | 0.00 | 0.00 | 0.00 | 69 | 1014.2 |
| 20260506013402 | 66 | 193 | 0.9 | 1.7 | 0.00 | 0.00 | 0.00 | 68 | 1014.2 |